Regional Weather Roundup
Issued by NWS

Home | Current Version | Previous Version | Text Only | Print | Product List | Glossary On
Versions: 1 2 3 4 5 6 7 8 9 10 11 12 13 14 15 16 17 18 19 20 21 22 23 24 25 26 27 28 29 30 31 32 33 34 35 36 37 38 39 40 41 42 43 44 45 46 47 48 49 50
000
ASUS43 KTOP 272059
RWRKS

WEATHER ROUNDUP FOR KANSAS
NATIONAL WEATHER SERVICE GOODLAND KS
400 PM CDT SAT MAY 27 2017

NOTE:  "FAIR" INDICATES FEW OR NO CLOUDS BELOW 12,000 FEET WITH NO
SIGNIFICANT WEATHER AND/OR OBSTRUCTIONS TO VISIBILITY.

KSZ001>006-013>018-027>032-041>047-272200-
NORTHWEST KANSAS

CITY           SKY/WX    TMP DP  RH WIND       PRES   REMARKS
GOODLAND       CLOUDY    66  50  56 N21       30.02R
HAYS           CLOUDY    75  60  59 N12       29.89S
HILL CITY      PTSUNNY   74  58  57 N15       29.93S
RUSSELL        MOSUNNY   75  60  59 NW12G21   29.87S
$$

KSZ061>065-074>080-084>089-272200-
SOUTHWEST KANSAS

CITY           SKY/WX    TMP DP  RH WIND       PRES   REMARKS
DODGE CITY     CLOUDY    76  56  49 N8        29.90F
ELKHART          N/A     74  50  43 N5          N/A
GARDEN CITY    CLOUDY    72  54  53 N18       29.94R
GREAT BEND     MOSUNNY   76  61  59 N10       29.87F
LIBERAL        CLOUDY    75  56  51 N8        29.93R
$$

KSZ066>073-081>083-090>101-272200-
SOUTHEAST KANSAS

CITY           SKY/WX    TMP DP  RH WIND       PRES   REMARKS
CHANUTE        PTSUNNY   74  62  66 NE13      29.80R
COFFEYVILLE    MOSUNNY   84  78  82 N9        29.73F HX  95
HUTCHINSON     CLOUDY    77  61  57 N10       29.82F
MEDICINE LODGE   N/A     83  61  47 NE8       29.80S
NEWTON         PTSUNNY   75  62  64 N18       29.83R
PARSONS        CLOUDY    79  71  76 N10       29.77R
WICHITA INTL   MOSUNNY   84  65  52 NE8       29.78F
WICHITA JABRA  PTSUNNY   82  64  54 CALM      29.79F
WINFIELD       MOSUNNY   83  69  62 NE14      29.77S
$$

KSZ007>012-019>026-033>040-048>060-102>105-272200-
NORTHEAST KANSAS

CITY           SKY/WX    TMP DP  RH WIND       PRES   REMARKS
CONCORDIA      MOSUNNY   74  62  66 N12       29.86R
EMPORIA        TSTM      71  63  75 E9        29.82R
LAWRENCE       CLOUDY    74  63  68 W7        29.82S
MANHATTAN      CLOUDY    77  64  64 W8        29.83R
OLATHE IND     CLOUDY    71  60  68 N10       29.82R
OLATHE EXE     CLOUDY    69  61  75 NE7       29.81R
SALINA         SUNNY     79  63  57 NW17      29.84S
TOPEKA BILLARD CLOUDY    74  65  73 N3        29.83R
TOPEKA FORBES  PTSUNNY   76  63  64 N9        29.82R
$$




USA.gov is the U.S. government's official web portal to all federal, state and local government web resources and services.